Location: Molino di Ancona
(43.6167°N, 13.3667°E)
Time: 03:16:19
(UTC+00:00)

PSLV R/B - Pass Details

Date: 15 December 2019
Orbit: 504 x 580 km, 97.8° (Epoch: 25 January)

Event Time Altitude Azimuth Distance (km) Brightness Sun altitude
Rises 04:41:36 0° 6° (N) 2,806 7.3 -19.2°
Reaches altitude 10° 04:43:50 10° 360° (N) 1,905 6.4 -18.9°
Maximum altitude 04:47:45 43° 288° (WNW) 816 4.2 -18.2°
Drops below altitude 10° 04:51:39 10° 217° (SW) 1,886 6.3 -17.5°
Sets 04:53:51 0° 211° (SSW) 2,775 7.3 -17.1°
